Location: Dziadowski
(50.3833°N, 20.0333°E)
Time: 19:41:03
(UTC+00:00)

Meteor 1-24 Rocket - Pass Details

Date: 18 January 2026
Orbit: 790 x 925 km, 81.3° (Epoch: 15 February)

Event Time Altitude Azimuth Distance (km) Brightness Sun altitude
Rises 05:47:44 0° 342° (NNW) 3,577 6.6 -7.0°
Reaches altitude 10° 05:50:21 10° 336° (NNW) 2,635 5.8 -6.6°
Maximum altitude 05:55:55 40° 269° (W) 1,335 4.4 -5.8°
Drops below altitude 10° 06:01:25 10° 202° (SSW) 2,604 6.3 -5.0°
Sets 06:04:00 0° 195° (SSW) 3,530 7.1 -4.7°
